This is the latest recevied weather packets stored in our database for station/object N2QDK-2. If no packets are shown the sender has not sent any weather packets the latest 10 day(s).
| Time | Temp. | Humidity | Pressure | Rain* | Wind** | Luminosity | Snow |
|---|---|---|---|---|---|---|---|
| 1777819518 | 10° C | 52% | 1013.4 hPa | 0 mm | - | - | - |
| 1777818917 | 10° C | 53% | 1013.5 hPa | 0 mm | - | - | - |
| 1777818317 | 9.44° C | 52% | 1013.6 hPa | 0 mm | - | - | - |
| 1777817717 | 9.44° C | 54% | 1013.7 hPa | 0 mm | - | - | - |
| 1777817117 | 9.44° C | 55% | 1013.8 hPa | 0 mm | - | - | - |
| 1777816517 | 8.89° C | 57% | 1013.8 hPa | 0 mm | - | - | - |
| 1777815917 | 8.89° C | 58% | 1013.9 hPa | 0 mm | - | - | - |
| 1777815317 | 8.33° C | 57% | 1014 hPa | 0 mm | - | - | - |
| 1777814717 | 7.78° C | 60% | 1014.1 hPa | 0 mm | - | - | - |
| 1777814117 | 7.22° C | 60% | 1014.1 hPa | 0 mm | - | - | - |
| 1777813517 | 6.67° C | 59% | 1014.1 hPa | 0 mm | - | - | - |
| 1777812917 | 6.67° C | 61% | 1014.2 hPa | 0 mm | - | - | - |
| 1777812317 | 6.67° C | 59% | 1014.1 hPa | 0 mm | - | - | - |
| 1777811717 | 6.11° C | 62% | 1014.1 hPa | 0 mm | - | - | - |
| 1777811117 | 6.11° C | 66% | 1014.1 hPa | 0 mm | - | - | - |
| 1777810517 | 5.56° C | 68% | 1014.1 hPa | 0 mm | - | - | - |
| 1777809917 | 5° C | 70% | 1014.2 hPa | 0 mm | - | - | - |
| 1777809317 | 5° C | 70% | 1014.2 hPa | 0 mm | - | - | - |
| 1777808717 | 4.44° C | 74% | 1014.2 hPa | 0 mm | - | - | - |
| 1777808117 | 3.89° C | 76% | 1014.1 hPa | 0 mm | - | - | - |
| 1777807517 | 3.33° C | 79% | 1014 hPa | 0 mm | - | - | - |
| 1777806917 | 2.78° C | 82% | 1014 hPa | 0 mm | - | - | - |
| 1777806316 | 2.22° C | 84% | 1013.9 hPa | 0 mm | - | - | - |
| 1777805717 | 1.67° C | 84% | 1013.8 hPa | 0 mm | - | - | - |
| 1777805117 | 1.67° C | 85% | 1013.7 hPa | 0 mm | - | - | - |
* Rain latest hour (hover to see other rain measurements)
** Current wind speed in m/s (hover to see current wind gust speed)